• In Kazakhstan
  • List of Countries
  • For 7 days
  • Water Temperature
  • Satellite Maps
  • Weather Map
  • News
  • Weather Widgets
  • user-avatar
    Login

    Hourly Weather Sprzecice

    Today, 22 February, Friday

    Time Temperature Precipitation Wind Pressure Humidity
    00:00 +5°C° 0.4 mm 4 mps 743 mmHg 89%
    01:00 +4°C° 0 mm 3 mps 744 mmHg 91%
    02:00 +4°C° 0.6 mm 4 mps 744 mmHg 91%
    03:00 +4°C° 0.6 mm 4 mps 744 mmHg 91%
    04:00 +5°C° 0.6 mm 5 mps 744 mmHg 92%
    05:00 +3°C° 0.2 mm 6 mps 745 mmHg 88%
    06:00 +2°C° 0.2 mm 6 mps 746 mmHg 85%
    07:00 -1°C° 0 mm 6 mps 747 mmHg 79%
    08:00 -1°C° 0 mm 6 mps 748 mmHg 74%
    09:00 -2°C° 0 mm 6 mps 749 mmHg 70%
    10:00 -3°C° 0 mm 6 mps 751 mmHg 65%
    11:00 -3°C° 0 mm 6 mps 751 mmHg 59%
    12:00 -2°C° 0 mm 6 mps 752 mmHg 52%
    13:00 -2°C° 0 mm 6 mps 753 mmHg 45%
    14:00 -3°C° 0 mm 6 mps 754 mmHg 45%
    15:00 -3°C° 0 mm 6 mps 754 mmHg 44%
    16:00 -3°C° 0 mm 6 mps 755 mmHg 44%
    17:00 -4°C° 0 mm 5 mps 755 mmHg 45%
    18:00 -5°C° 0 mm 5 mps 756 mmHg 46%
    19:00 -4°C° 0 mm 4 mps 757 mmHg 47%
    20:00 -5°C° 0 mm 4 mps 758 mmHg 45%
    21:00 -5°C° 0 mm 4 mps 758 mmHg 43%
    22:00 -5°C° 0 mm 4 mps 759 mmHg 41%
    23:00 -5°C° 0 mm 4 mps 759 mmHg 39%

    Tomorrow, 23 February, Saturday

    Time Temperature Precipitation Wind Pressure Humidity
    00:00 -5°C° 0 mm 4 mps 760 mmHg 37%
    01:00 -5°C° 0 mm 4 mps 760 mmHg 35%
    02:00 -5°C° 0 mm 3 mps 760 mmHg 36%
    03:00 -5°C° 0 mm 3 mps 760 mmHg 36%
    04:00 -5°C° 0 mm 3 mps 760 mmHg 36%
    05:00 -4°C° 0 mm 2 mps 760 mmHg 37%
    06:00 -4°C° 0 mm 2 mps 760 mmHg 38%
    07:00 -5°C° 0 mm 2 mps 760 mmHg 39%
    08:00 -4°C° 0 mm 2 mps 761 mmHg 36%
    09:00 -3°C° 0 mm 2 mps 761 mmHg 33%
    10:00 -3°C° 0 mm 2 mps 761 mmHg 31%
    11:00 -2°C° 0 mm 2 mps 761 mmHg 29%
    12:00 -1°C° 0 mm 2 mps 761 mmHg 27%
    13:00 +1°C° 0 mm 1 mps 760 mmHg 25%
    14:00 +1°C° 0 mm 1 mps 760 mmHg 26%
    15:00 +1°C° 0 mm 1 mps 760 mmHg 27%
    16:00 +1°C° 0 mm 1 mps 759 mmHg 28%
    17:00 +1°C° 0 mm 1 mps 759 mmHg 31%
    18:00 0°C° 0 mm 1 mps 759 mmHg 35%
    19:00 -1°C° 0 mm 1 mps 759 mmHg 38%
    20:00 -1°C° 0 mm 1 mps 759 mmHg 39%
    21:00 -1°C° 0 mm 1 mps 759 mmHg 39%
    22:00 -1°C° 0 mm 1 mps 759 mmHg 40%
    23:00 -1°C° 0 mm 1 mps 759 mmHg 40%

    Day after tomorrow, 24 February, Sunday

    Time Temperature Precipitation Wind Pressure Humidity
    00:00 -1°C° 0 mm 1 mps 759 mmHg 40%
    01:00 -1°C° 0 mm 1 mps 758 mmHg 39%
    02:00 -1°C° 0 mm 1 mps 758 mmHg 39%
    03:00 -1°C° 0 mm 1 mps 758 mmHg 38%
    04:00 -1°C° 0 mm 1 mps 758 mmHg 38%
    05:00 -1°C° 0 mm 1 mps 758 mmHg 37%
    06:00 -1°C° 0 mm 1 mps 758 mmHg 37%
    07:00 -1°C° 0 mm 1 mps 758 mmHg 37%
    08:00 0°C° 0 mm 1 mps 758 mmHg 33%
    09:00 +2°C° 0 mm 1 mps 758 mmHg 29%
    10:00 +3°C° 0 mm 1 mps 758 mmHg 25%
    11:00 +4°C° 0 mm 1 mps 757 mmHg 24%
    12:00 +4°C° 0 mm 2 mps 757 mmHg 23%
    13:00 +5°C° 0 mm 2 mps 757 mmHg 23%
    14:00 +5°C° 0 mm 2 mps 757 mmHg 28%
    15:00 +5°C° 0 mm 2 mps 757 mmHg 34%
    16:00 +4°C° 0 mm 2 mps 756 mmHg 40%
    17:00 +3°C° 0 mm 2 mps 756 mmHg 44%
    18:00 +2°C° 0 mm 2 mps 757 mmHg 48%
    19:00 +1°C° 0 mm 2 mps 757 mmHg 52%
    20:00 +1°C° 0 mm 2 mps 757 mmHg 54%
    21:00 -1°C° 0 mm 2 mps 757 mmHg 55%
    22:00 -1°C° 0 mm 2 mps 757 mmHg 57%
    23:00 -1°C° 0 mm 2 mps 757 mmHg 58%

    25 February, Monday

    Time Temperature Precipitation Wind Pressure Humidity
    00:00 -1°C° 0 mm 2 mps 757 mmHg 59%
    01:00 -1°C° 0 mm 2 mps 757 mmHg 61%
    02:00 -1°C° 0 mm 2 mps 757 mmHg 61%
    03:00 -1°C° 0 mm 2 mps 757 mmHg 62%
    04:00 -1°C° 0 mm 2 mps 757 mmHg 63%
    05:00 -1°C° 0 mm 2 mps 757 mmHg 65%
    06:00 -1°C° 0 mm 2 mps 757 mmHg 66%
    07:00 -1°C° 0 mm 3 mps 757 mmHg 67%
    08:00 0°C° 0 mm 3 mps 757 mmHg 65%
    09:00 +1°C° 0 mm 3 mps 757 mmHg 63%
    10:00 +3°C° 0 mm 4 mps 757 mmHg 61%
    11:00 +4°C° 0 mm 3 mps 757 mmHg 61%
    12:00 +5°C° 0 mm 3 mps 757 mmHg 62%
    13:00 +7°C° 0 mm 3 mps 757 mmHg 63%
    14:00 +7°C° 0 mm 3 mps 756 mmHg 64%
    15:00 +7°C° 0 mm 3 mps 756 mmHg 66%
    16:00 +7°C° 0 mm 2 mps 756 mmHg 68%
    17:00 +6°C° 0 mm 2 mps 756 mmHg 73%
    18:00 +5°C° 0 mm 2 mps 756 mmHg 79%
    19:00 +4°C° 0 mm 2 mps 756 mmHg 84%
    20:00 +3°C° 0 mm 2 mps 756 mmHg 85%
    21:00 +3°C° 0 mm 2 mps 756 mmHg 86%
    22:00 +2°C° 0 mm 2 mps 756 mmHg 87%
    23:00 +2°C° 0 mm 2 mps 755 mmHg 86%

    26 February, Tuesday

    Time Temperature Precipitation Wind Pressure Humidity
    00:00 +2°C° 0 mm 2 mps 755 mmHg 85%
    01:00 +2°C° 0 mm 2 mps 754 mmHg 83%
    02:00 +2°C° 0 mm 2 mps 754 mmHg 81%
    03:00 +1°C° 0 mm 3 mps 753 mmHg 80%
    04:00 +1°C° 0 mm 3 mps 753 mmHg 78%
    05:00 +1°C° 0 mm 3 mps 753 mmHg 77%
    06:00 +1°C° 0 mm 3 mps 752 mmHg 77%
    07:00 +1°C° 0 mm 3 mps 752 mmHg 76%
    08:00 +3°C° 0 mm 4 mps 752 mmHg 71%
    09:00 +3°C° 0 mm 5 mps 751 mmHg 67%
    10:00 +5°C° 0 mm 6 mps 751 mmHg 62%
    11:00 +7°C° 0 mm 6 mps 751 mmHg 58%
    12:00 +8°C° 0 mm 6 mps 751 mmHg 54%
    13:00 +9°C° 0 mm 7 mps 750 mmHg 49%
    14:00 +8°C° 0.1 mm 6 mps 750 mmHg 57%
    15:00 +7°C° 0.1 mm 5 mps 750 mmHg 65%
    16:00 +6°C° 0.1 mm 5 mps 750 mmHg 72%
    17:00 +5°C° 0 mm 4 mps 750 mmHg 75%
    18:00 +5°C° 0 mm 4 mps 750 mmHg 78%
    19:00 +4°C° 0 mm 3 mps 751 mmHg 81%
    20:00 +3°C° 0 mm 3 mps 751 mmHg 85%
    21:00 +3°C° 0 mm 3 mps 751 mmHg 88%
    22:00 +2°C° 0 mm 3 mps 751 mmHg 91%
    23:00 +2°C° 0 mm 3 mps 751 mmHg 91%

    27 February, Wednesday

    Time Temperature Precipitation Wind Pressure Humidity
    00:00 +2°C° 0 mm 3 mps 751 mmHg 92%
    01:00 +1°C° 0 mm 4 mps 751 mmHg 93%
    02:00 +1°C° 0 mm 3 mps 751 mmHg 93%
    03:00 +1°C° 0 mm 3 mps 750 mmHg 94%
    04:00 0°C° 0 mm 3 mps 750 mmHg 94%
    05:00 0°C° 0 mm 3 mps 750 mmHg 94%
    06:00 0°C° 0 mm 3 mps 750 mmHg 93%
    07:00 -1°C° 0 mm 3 mps 750 mmHg 93%
    08:00 +1°C° 0 mm 3 mps 750 mmHg 83%
    09:00 +2°C° 0 mm 3 mps 750 mmHg 74%
    10:00 +4°C° 0 mm 3 mps 750 mmHg 65%
    11:00 +5°C° 0 mm 3 mps 750 mmHg 58%
    12:00 +7°C° 0 mm 3 mps 749 mmHg 51%
    13:00 +9°C° 0 mm 2 mps 749 mmHg 44%
    14:00 +9°C° 0 mm 2 mps 748 mmHg 45%
    15:00 +9°C° 0 mm 2 mps 748 mmHg 45%
    16:00 +9°C° 0 mm 2 mps 747 mmHg 45%
    17:00 +9°C° 0 mm 1 mps 747 mmHg 50%
    18:00 +8°C° 0 mm 1 mps 747 mmHg 54%
    19:00 +7°C° 0 mm 1 mps 747 mmHg 58%
    20:00 +6°C° 0 mm 1 mps 746 mmHg 59%
    21:00 +5°C° 0 mm 2 mps 746 mmHg 59%
    22:00 +5°C° 0 mm 2 mps 745 mmHg 60%
    23:00 +5°C° 0 mm 2 mps 745 mmHg 62%
    Show more